Denison, IA

6:29 PM CST on December 08, 2019 (GMT -0600)
Denison Municipal

Weather History for KDNS - November, 2019

Change the Weather History Date:

Tuesday, November 19, 2019

  Actual Average Record
Temperature  
Mean Temperature 44 °F -  
Max Temperature 53 °F 45 °F 69 °F (2003)
Min Temperature 35 °F 27 °F 14 °F (2006)
Degree Days  
Heating Degree Days 21    
Moisture  
Dew Point 37 °F    
Average Humidity 84    
Maximum Humidity 100    
Minimum Humidity 47    
Precipitation  
Precipitation 0.00 in - - ()
Sea Level Pressure  
Sea Level Pressure 29.88 in    
Wind  
Wind Speed 4 mph (WNW)    
Max Wind Speed 10 mph    
Max Gust Speed 13 mph    
Visibility 10 miles    
Events      
Averages and records for this station are not official NWS values.
T = Trace of Precipitation, MM = Missing Value Source: NWS Daily Summary

Daily Weather History Graph

Daily Weather History Graph

Search for Another Location

Airport or City:

Astronomy

Nov. 19, 2019 Rise Set
Actual Time 7:16 AM CST 4:57 PM CST
Civil Twilight 6:45 AM CST 5:27 PM CST
Nautical Twilight 6:11 AM CST 6:01 PM CST
Astronomical Twilight 5:38 AM CST 6:34 PM CST
Moon 11:55 PM CST (11/19) 1:26 PM CST (11/19)
Length of Visible Light 10h 41m
Length of Day
9h 41m
Waning Gibbous, 51% of the Moon is Illuminated
Nov 19
Waning Gibbous
Nov 19
Last Quarter
Nov 26
New
Dec 4
First Quarter
Dec 11
Full

Hourly Weather History & Observations

Time (CST) Temp. Windchill Dew Point Humidity Pressure Visibility Wind Dir Wind Speed Gust Speed Precip Events Conditions
12:15 AM 42.8 °F 39.3 °F 42.8 °F 100% 29.77 in 10.0 mi NW 5.8 mph - N/A   Clear
12:35 AM 41.0 °F 38.0 °F 41.0 °F 100% 29.78 in 10.0 mi West 4.6 mph - N/A   Clear
12:55 AM 41.0 °F - 41.0 °F 100% 29.78 in 10.0 mi Calm Calm - N/A   Scattered Clouds
1:15 AM 39.2 °F - 39.2 °F 100% 29.78 in 10.0 mi Calm Calm - N/A   Scattered Clouds
1:35 AM 39.2 °F 37.0 °F 39.2 °F 100% 29.78 in 10.0 mi SSW 3.5 mph - N/A   Clear
1:55 AM 39.2 °F - 39.2 °F 100% 29.79 in 10.0 mi Calm Calm - N/A   Clear
2:15 AM 39.2 °F - 39.2 °F 100% 29.79 in 10.0 mi Calm Calm - N/A   Clear
2:35 AM 39.2 °F 37.0 °F 39.2 °F 100% 29.78 in 10.0 mi NW 3.5 mph - N/A   Clear
2:55 AM 37.4 °F 34.9 °F 37.4 °F 100% 29.78 in 7.0 mi WSW 3.5 mph - N/A   Clear
3:15 AM 37.4 °F - 37.4 °F 100% 29.79 in 6.0 mi Calm Calm - N/A   Clear
3:35 AM 35.6 °F - 35.6 °F 100% 29.79 in 7.0 mi Calm Calm - N/A   Clear
3:55 AM 37.4 °F - 37.4 °F 100% 29.79 in 8.0 mi Calm Calm - N/A   Clear
4:15 AM 35.6 °F - 35.6 °F 100% 29.79 in 10.0 mi Calm Calm - N/A   Clear
4:35 AM 35.6 °F 31.7 °F 35.6 °F 100% 29.80 in 10.0 mi WSW 4.6 mph - N/A   Clear
4:55 AM 35.6 °F 32.8 °F 35.6 °F 100% 29.81 in 9.0 mi SSW 3.5 mph - N/A   Clear
5:15 AM 35.6 °F 32.8 °F 35.6 °F 100% 29.81 in 10.0 mi SSW 3.5 mph - N/A   Clear
5:55 AM 35.6 °F 31.7 °F 35.6 °F 100% 29.83 in 10.0 mi SW 4.6 mph - N/A   Clear
6:15 AM 35.6 °F 31.7 °F 35.6 °F 100% 29.83 in 10.0 mi WSW 4.6 mph - N/A   Clear
6:35 AM 37.4 °F 33.8 °F 37.4 °F 100% 29.84 in 10.0 mi WSW 4.6 mph - N/A   Clear
6:55 AM 35.6 °F 31.7 °F 35.6 °F 100% 29.85 in 10.0 mi SW 4.6 mph - N/A   Clear
7:15 AM 37.4 °F 34.9 °F 37.4 °F 100% 29.85 in 10.0 mi West 3.5 mph - N/A   Clear
7:35 AM 35.6 °F 31.7 °F 35.6 °F 100% 29.86 in 10.0 mi West 4.6 mph - N/A   Clear
7:55 AM 37.4 °F 34.9 °F 37.4 °F 100% 29.87 in 10.0 mi WSW 3.5 mph - N/A   Clear
8:15 AM 37.4 °F - 37.4 °F 100% 29.87 in 10.0 mi Calm Calm - N/A   Clear
8:35 AM 39.2 °F 35.9 °F 39.2 °F 100% 29.89 in 10.0 mi Variable 4.6 mph - N/A   Clear
8:55 AM 39.2 °F 35.9 °F 39.2 °F 100% 29.90 in 10.0 mi SSW 4.6 mph - N/A   Clear
9:15 AM 41.0 °F 39.0 °F 41.0 °F 100% 29.90 in 10.0 mi Variable 3.5 mph - N/A   Clear
9:35 AM 44.6 °F 39.7 °F 41.0 °F 87% 29.90 in 10.0 mi West 9.2 mph - N/A   Clear
9:55 AM 44.6 °F 40.2 °F 41.0 °F 87% 29.90 in 10.0 mi WNW 8.1 mph - N/A   Clear
10:15 AM 46.4 °F 41.9 °F 41.0 °F 81% 29.91 in 10.0 mi WNW 9.2 mph - N/A   Clear
10:35 AM 46.4 °F 42.4 °F 41.0 °F 81% 29.91 in 10.0 mi West 8.1 mph - N/A   Clear
10:55 AM 48.2 °F - 39.2 °F 71% 29.91 in 10.0 mi West 8.1 mph - N/A   Clear
11:15 AM 50.0 °F - 39.2 °F 66% 29.91 in 10.0 mi WNW 9.2 mph - N/A   Clear
11:55 AM 51.8 °F - 37.4 °F 58% 29.90 in 10.0 mi West 9.2 mph - N/A   Clear
12:15 PM 51.8 °F - 35.6 °F 54% 29.89 in 10.0 mi West 9.2 mph - N/A   Clear
12:35 PM 51.8 °F - 35.6 °F 54% 29.89 in 10.0 mi NW 9.2 mph - N/A   Clear
1:15 PM 53.6 °F - 35.6 °F 51% 29.89 in 10.0 mi NW 10.4 mph - N/A   Clear
1:35 PM 53.6 °F - 33.8 °F 47% 29.89 in 10.0 mi Variable 6.9 mph 12.7 mph N/A   Clear
1:55 PM 53.6 °F - 33.8 °F 47% 29.89 in 10.0 mi Variable 5.8 mph 11.5 mph N/A   Clear
2:15 PM 53.6 °F - 35.6 °F 51% 29.89 in - NW 5.8 mph - N/A   Clear
2:35 PM 53.6 °F - 33.8 °F 47% 29.89 in 10.0 mi NNW 4.6 mph - N/A   Clear
2:55 PM 53.6 °F - 33.8 °F 47% 29.89 in 10.0 mi WNW 8.1 mph - N/A   Clear
3:15 PM 53.6 °F - 33.8 °F 47% 29.89 in 10.0 mi NW 5.8 mph - N/A   Clear
3:35 PM 53.6 °F - 33.8 °F 47% 29.90 in 10.0 mi NW 6.9 mph - N/A   Clear
3:55 PM 53.6 °F - 33.8 °F 47% 29.90 in 10.0 mi Calm Calm - N/A   Clear
4:15 PM 51.8 °F - 33.8 °F 50% 29.90 in 10.0 mi North 3.5 mph - N/A   Clear
4:35 PM 51.8 °F - 33.8 °F 50% 29.90 in 9.0 mi North 3.5 mph - N/A   Clear
4:55 PM 50.0 °F - 33.8 °F 54% 29.90 in 10.0 mi NE 3.5 mph - N/A   Clear
5:35 PM 44.6 °F 43.1 °F 33.8 °F 66% 29.90 in 10.0 mi ESE 3.5 mph - N/A   Clear
5:55 PM 42.8 °F 40.1 °F 33.8 °F 70% 29.91 in 10.0 mi East 4.6 mph - N/A   Clear
6:15 PM 41.0 °F - 33.8 °F 76% 29.92 in 10.0 mi Calm Calm - N/A   Clear
6:35 PM 39.2 °F - 33.8 °F 81% 29.92 in 10.0 mi Calm Calm - N/A   Clear
6:55 PM 37.4 °F 34.9 °F 33.8 °F 87% 29.92 in 10.0 mi ENE 3.5 mph - N/A   Clear
7:15 PM 39.2 °F 37.0 °F 33.8 °F 81% 29.93 in 10.0 mi ENE 3.5 mph - N/A   Clear
7:35 PM 39.2 °F - 33.8 °F 81% 29.93 in 10.0 mi Calm Calm - N/A   Clear
7:55 PM 37.4 °F - 33.8 °F 87% 29.93 in 10.0 mi Calm Calm - N/A   Clear
8:15 PM 35.6 °F - 35.6 °F 100% 29.93 in 10.0 mi Calm Calm - N/A   Clear
8:35 PM 37.4 °F 33.8 °F 37.4 °F 100% 29.94 in 10.0 mi East 4.6 mph - N/A   Mostly Cloudy
8:55 PM 35.6 °F 31.7 °F 35.6 °F 100% 29.94 in 10.0 mi East 4.6 mph - N/A   Overcast
9:15 PM 39.2 °F 34.2 °F 39.2 °F 100% 29.95 in 10.0 mi East 6.9 mph - N/A   Overcast
9:35 PM 39.2 °F 35.0 °F 39.2 °F 100% 29.95 in 10.0 mi East 5.8 mph - N/A   Mostly Cloudy
9:55 PM 41.0 °F 36.4 °F 39.2 °F 93% 29.95 in 10.0 mi East 6.9 mph - N/A   Overcast
10:15 PM 41.0 °F 36.4 °F 39.2 °F 93% 29.95 in 10.0 mi East 6.9 mph - N/A   Overcast
10:35 PM 41.0 °F 35.8 °F 39.2 °F 93% 29.96 in 10.0 mi East 8.1 mph - N/A   Overcast
10:55 PM 41.0 °F 36.4 °F 39.2 °F 93% 29.96 in - East 6.9 mph - N/A   Unknown
11:15 PM 41.0 °F 36.4 °F 39.2 °F 93% 29.96 in 10.0 mi East 6.9 mph - N/A   Scattered Clouds
11:35 PM 41.0 °F 35.8 °F 39.2 °F 93% 29.96 in 10.0 mi East 8.1 mph - N/A   Mostly Cloudy
11:55 PM 39.2 °F 34.2 °F 39.2 °F 100% 29.96 in 10.0 mi East 6.9 mph - N/A   Scattered Clouds